16:49
Airports
History
Links
Donate
Help keep this website running!
PayPal
Bitcoin
Information on this page is community maintained and may be outdated or inaccurate and is intended for reference only or PC simulator navigating.
Always use approved charts for navigating.
N04
Griswold
Griswold (N04)
Madison, Connecticut, United States (6443)
(U)
Lat/Lng:41° 16' 16.25" N / 72° 32' 59" W
41.27118 / -72.549721
Elevation:15'ft 5mMSL
ID / ICAO:N04
Runways:1
Longest:(06-24) 563.3m 1,848ft Asphalt
Distance To
Airport ID:
Nearby VORs <50NM
Nearby NDBs
Nearby WeatherUpdated 07-21-17 15:53 GMT
Nearby weather at KHVN, Tweed-new Haven located 17.5 nautical miles from N04
Altimeter: 29.89
Visibility: 10.0 statute miles
Wind: 7 knots (200°)
Temp: 28°c 82°f
Humidity: 65.8%

METAR: KHVN 211553Z 20007KT 10SM FEW041 28/21 A2989 RMK AO2 SLP121 T02780211

(Powered by phpweather)
Runway 06 / 24
Dimensions:563.3 x 15.2m 1848' x 50'ft
Surface:Asphalt
Runway 06 [A]Runway 24 [B]
Heading:044°TH 224°TH
Lat:
Lng:
41° 16' 9.73"N
72° 33' 7.61"W
41° 16' 22.76"N
72° 32' 50.38"W
User Notes and Comments
Google Map
Nearby Airports
(U) Chester 8.1 NM
KSNC NNE 16°
(U) Goodspeed 13.0 NM
42B NNE 22°
(R) Maplewood Farm 15.9 NM
CT39 NNW 328°
(R) Rose Field 16.2 NM
2NK3 ESE 119°
(R) Devils Hopyard Field 16.2 NM
CT11 NE 42°
(C) Tweed-new Haven 17.5 NM
KHVN (WX) W 268°
(R) Westmoreland 18.0 NM
49NY SE 139°
VFR Chart
Flight Planning at SkyVector.com